Location: Te Maire Creek
(41.1333°S, 175.9167°E)
Time: 00:17:35
(UTC+00:00)

Cosmos 1844 Rocket - Pass Details

Date: 19 May 2024
Orbit: 825 x 842 km, 71.0° (Epoch: 18 June)

Event Time Altitude Azimuth Distance (km) Brightness Sun altitude
Exits shadow 18:47:05 - 214° (SW) 3,236 5.2 -6.9°
Reaches altitude 10° 18:49:12 10° 222° (SW) 2,491 4.6 -6.5°
Maximum altitude 18:54:16 34° 284° (WNW) 1,381 3.4 -5.6°
Drops below altitude 10° 18:59:17 10° 347° (NNW) 2,461 5.3 -4.7°
Sets 19:01:55 0° 356° (N) 3,386 6.1 -4.3°
